TimeCDT,TemperatureF,Dew PointF,Humidity,Sea Level PressureIn,VisibilityMPH,Wind Direction,Wind SpeedMPH,Gust SpeedMPH,PrecipitationIn,Events,Conditions,WindDirDegrees,DateUTC
12:52 AM,37.9,35.1,89,30.30,4.0,NNE,4.6,-,N/A,,Clear,30,2014-04-18 05:52:00
1:52 AM,35.1,34.0,96,30.30,3.0,Calm,Calm,-,N/A,,Clear,0,2014-04-18 06:52:00
2:15 AM,34.0,32.0,92,30.27,2.5,Calm,Calm,-,N/A,,Clear,0,2014-04-18 07:15:00
2:23 AM,36.0,33.1,89,30.28,3.0,Calm,Calm,-,N/A,,Clear,0,2014-04-18 07:23:00
2:44 AM,33.1,32.0,96,30.28,2.0,Calm,Calm,-,N/A,,Clear,0,2014-04-18 07:44:00
2:52 AM,34.0,32.0,92,30.29,2.5,Calm,Calm,-,N/A,,Clear,0,2014-04-18 07:52:00
3:13 AM,32.0,30.9,96,30.27,1.5,NE,3.5,-,N/A,,Clear,40,2014-04-18 08:13:00
3:34 AM,33.1,32.0,96,30.27,2.0,North,3.5,-,N/A,,Clear,10,2014-04-18 08:34:00
3:42 AM,33.8,32.0,93,30.27,1.2,North,3.5,-,N/A,,Clear,10,2014-04-18 08:42:00
3:52 AM,33.1,32.0,96,30.28,1.2,North,3.5,-,N/A,,Clear,10,2014-04-18 08:52:00
3:59 AM,34.0,32.0,92,30.27,1.0,North,3.5,-,N/A,,Clear,10,2014-04-18 08:59:00
4:07 AM,33.1,32.0,96,30.27,1.2,NNE,3.5,-,N/A,,Clear,20,2014-04-18 09:07:00
4:15 AM,34.0,33.1,96,30.27,1.5,NNE,3.5,-,N/A,,Clear,20,2014-04-18 09:15:00
4:23 AM,34.0,32.0,92,30.27,1.2,NNE,3.5,-,N/A,,Clear,30,2014-04-18 09:23:00
4:29 AM,33.1,32.0,96,30.27,0.8,NE,3.5,-,N/A,,Clear,50,2014-04-18 09:29:00
4:41 AM,36.0,33.1,89,30.27,1.2,Calm,Calm,-,N/A,,Clear,0,2014-04-18 09:41:00
4:45 AM,33.1,32.0,96,30.27,2.0,ENE,3.5,-,N/A,,Clear,60,2014-04-18 09:45:00
4:52 AM,32.0,32.0,100,30.29,2.0,Calm,Calm,-,N/A,,Clear,0,2014-04-18 09:52:00
5:09 AM,34.0,32.0,92,30.27,1.5,ENE,3.5,-,N/A,,Clear,60,2014-04-18 10:09:00
5:21 AM,32.0,32.0,100,30.27,2.0,Calm,Calm,-,N/A,,Clear,0,2014-04-18 10:21:00
5:52 AM,35.1,34.0,96,30.29,3.0,Calm,Calm,-,N/A,,Clear,0,2014-04-18 10:52:00
6:48 AM,33.8,32.0,93,30.29,2.0,ENE,3.5,-,N/A,,Clear,70,2014-04-18 11:48:00
6:52 AM,34.0,32.0,92,30.30,2.0,East,3.5,-,N/A,,Clear,80,2014-04-18 11:52:00
7:29 AM,37.0,35.1,93,30.30,3.0,East,3.5,-,N/A,,Clear,90,2014-04-18 12:29:00
7:52 AM,41.0,37.9,89,30.32,4.0,East,4.6,-,N/A,,Clear,80,2014-04-18 12:52:00
8:52 AM,46.9,39.0,74,30.32,7.0,ENE,4.6,-,N/A,,Clear,70,2014-04-18 13:52:00
9:52 AM,53.1,39.9,61,30.32,9.0,Variable,3.5,-,N/A,,Clear,0,2014-04-18 14:52:00
10:52 AM,57.9,43.0,58,30.31,10.0,ESE,3.5,-,N/A,,Clear,120,2014-04-18 15:52:00
11:52 AM,62.1,42.1,48,30.29,10.0,Variable,5.8,-,N/A,,Clear,0,2014-04-18 16:52:00
12:52 PM,64.9,42.1,43,30.27,10.0,Variable,4.6,-,N/A,,Clear,0,2014-04-18 17:52:00
1:52 PM,66.9,41.0,39,30.25,10.0,ESE,9.2,-,N/A,,Clear,120,2014-04-18 18:52:00
2:52 PM,68.0,41.0,37,30.23,10.0,ESE,8.1,-,N/A,,Clear,110,2014-04-18 19:52:00
3:52 PM,69.8,41.0,35,30.20,10.0,Variable,3.5,-,N/A,,Clear,0,2014-04-18 20:52:00
4:52 PM,70.0,39.9,33,30.17,10.0,Calm,Calm,-,N/A,,Clear,0,2014-04-18 21:52:00
5:52 PM,70.0,39.9,33,30.15,10.0,SSE,10.4,17.3,N/A,,Clear,150,2014-04-18 22:52:00
6:52 PM,68.0,41.0,37,30.14,10.0,SSE,8.1,-,N/A,,Clear,160,2014-04-18 23:52:00
7:52 PM,62.1,42.1,48,30.14,7.0,SSE,5.8,-,N/A,,Clear,150,2014-04-19 00:52:00
8:17 PM,60.1,41.0,49,30.14,3.0,SSE,5.8,-,N/A,,Haze,150,2014-04-19 01:17:00
8:52 PM,57.9,41.0,53,30.14,8.0,SE,4.6,-,N/A,,Partly Cloudy,130,2014-04-19 01:52:00
9:52 PM,55.4,41.0,58,30.16,10.0,ESE,5.8,-,N/A,,Clear,120,2014-04-19 02:52:00
10:07 PM,54.0,41.0,62,30.17,4.0,SSE,5.8,-,N/A,,Haze,150,2014-04-19 03:07:00
10:26 PM,54.0,41.0,62,30.17,1.8,SE,5.8,-,N/A,,Haze,130,2014-04-19 03:26:00
10:34 PM,57.0,41.0,55,30.17,3.0,SE,5.8,-,N/A,,Haze,140,2014-04-19 03:34:00
10:52 PM,51.1,41.0,68,30.17,3.0,SSE,4.6,-,N/A,,Haze,150,2014-04-19 03:52:00
11:02 PM,57.0,41.0,55,30.17,2.5,SE,5.8,-,N/A,,Haze,130,2014-04-19 04:02:00
11:09 PM,55.0,41.0,59,30.17,9.0,SE,4.6,-,N/A,,Clear,140,2014-04-19 04:09:00
11:52 PM,48.0,41.0,77,30.17,5.0,SE,3.5,-,N/A,,Haze,140,2014-04-19 04:52:00